Location: ?
(35.4554°N, 139.3092°E)
Time: 22:53:42
(UTC+00:00)

Resurs 1-4 Rocket - Pass Details

Date: 21 April 2021
Orbit: 799 x 815 km, 98.6° (Epoch: 10 May)

Event Time Altitude Azimuth Distance (km) Brightness Sun altitude
Rises 17:47:10 0° 349° (NNW) 3,315 5.6 -25.3°
Reaches altitude 10° 17:51:08 10° 319° (NW) 2,378 4.5 -24.6°
Enters shadow 17:51:56 11° 310° (NW) 2,290 4.3 -24.5°
